GW1347 Weather Reports


Display with metric or nautical units.
time (UTC)temp
F
wind
direction
speed
MPH
gust
MPH
rain 1hr
in
rain 24hr
in
rain mn
in
humidity
%
barometer
mb
20260504160328 68 169 9.0 19.0 0.00 0.00 0.00 58 1008.3
20260504150312 66 248 1.0 5.0 0.00 0.00 0.00 65 1008.5
20260504141115 64 250 5.0 11.0 0.00 0.00 0.00 66 1008.8
20260504081530 55 167 1.0 4.0 0.00 0.00 0.00 63 1009.8
20260504070340 56 124 2.0 6.0 0.00 0.00 0.00 60 1010.4
20260504060231 56 167 3.0 7.0 0.00 0.00 0.00 59 1011.1
20260504050104 57 240 3.0 8.0 0.00 0.00 0.00 58 1011.6
20260504045035 57 142 4.0 9.0 0.00 0.00 0.00 58 1011.6
20260504044045 57 227 4.0 9.0 0.00 0.00 0.00 58 1011.6
20260504041906 57 246 3.0 8.0 0.00 0.00 0.00 57 1011.7
20260504040903 57 245 3.0 6.0 0.00 0.00 0.00 57 1011.8
20260504035838 58 231 3.0 6.0 0.00 0.00 0.00 56 1011.9
20260504034830 58 213 3.0 6.0 0.00 0.00 0.00 56 1012.0
20260504033822 58 157 3.0 6.0 0.00 0.00 0.00 55 1012.1
20260504032801 59 181 3.0 8.0 0.00 0.00 0.00 54 1012.2
20260504031738 59 148 3.0 6.0 0.00 0.00 0.00 54 1012.3
20260504030728 59 236 4.0 8.0 0.00 0.00 0.00 53 1012.3
20260504025730 59 139 4.0 14.0 0.00 0.00 0.00 53 1012.3
20260504024710 59 167 4.0 14.0 0.00 0.00 0.00 53 1012.3
20260504023715 60 151 4.0 10.0 0.00 0.00 0.00 52 1012.4
20260504022703 60 243 4.0 8.0 0.00 0.00 0.00 51 1012.3
20260504021639 60 219 4.0 9.0 0.00 0.00 0.00 51 1012.4
20260504020613 60 257 5.0 9.0 0.00 0.00 0.00 51 1012.2
20260504014459 61 252 4.0 10.0 0.00 0.00 0.00 49 1012.3
20260504013433 61 334 5.0 13.0 0.00 0.00 0.00 48 1012.2
20260504012415 61 207 6.0 14.0 0.00 0.00 0.00 48 1012.1
20260504011402 61 217 6.0 14.0 0.00 0.00 0.00 48 1011.9
20260504005215 62 129 8.0 18.0 0.00 0.00 0.00 47 1011.7
20260504001908 62 218 7.0 17.0 0.00 0.00 0.00 46 1011.8
20260504000858 62 255 6.0 16.0 0.00 0.00 0.00 45 1011.8
20260503235913 62 219 7.0 16.0 0.00 0.00 0.00 45 1012.6
20260503234905 62 212 9.0 15.0 0.00 0.00 0.00 44 1012.8
20260503233911 62 255 8.0 15.0 0.00 0.00 0.00 43 1012.4
20260503232933 62 144 7.0 18.0 0.00 0.00 0.00 43 1012.4
20260503231953 62 224 9.0 18.0 0.00 0.00 0.00 44 1012.4
20260503231006 62 227 8.0 16.0 0.00 0.00 0.00 43 1012.4
20260503225932 62 230 10.0 16.0 0.00 0.00 0.00 43 1012.8
20260503223826 62 212 10.0 19.0 0.00 0.00 0.00 42 1012.5
20260503222804 61 202 10.0 19.0 0.00 0.00 0.00 44 1012.2
20260503221818 61 231 8.0 17.0 0.00 0.00 0.00 44 1013.1
20260503215715 61 184 8.0 16.0 0.00 0.00 0.00 46 1013.0
20260503213547 63 191 9.0 19.0 0.00 0.00 0.00 39 1013.5
20260503212515 63 201 8.0 19.0 0.00 0.00 0.00 39 1013.6
20260503211451 63 165 11.0 19.0 0.00 0.00 0.00 38 1014.1
20260503210513 63 233 9.0 17.0 0.00 0.00 0.00 38 1014.5
20260503205517 64 210 9.0 16.0 0.00 0.00 0.00 38 1014.6
20260503203320 66 313 7.0 16.0 0.00 0.00 0.00 37 1014.9
20260503202250 65 230 8.0 18.0 0.00 0.00 0.00 39 1014.7
20260503201219 65 236 9.0 20.0 0.00 0.00 0.00 37 1015.1
20260503200206 64 224 8.0 20.0 0.00 0.00 0.00 37 1015.4
20260503195138 64 218 6.0 18.0 0.00 0.00 0.00 38 1015.6
20260503194139 64 259 9.0 18.0 0.00 0.00 0.00 36 1015.7
20260503193155 63 235 8.0 18.0 0.00 0.00 0.00 36 1015.6
20260503191056 64 219 9.0 19.0 0.00 0.00 0.00 37 1015.9
20260503190103 64 220 8.0 18.0 0.00 0.00 0.00 34 1016.0
20260503185127 63 243 10.0 18.0 0.00 0.00 0.00 35 1016.2
20260503184133 63 186 10.0 26.0 0.00 0.00 0.00 34 1016.6
20260503183124 63 227 9.0 26.0 0.00 0.00 0.00 32 1016.8
20260503182113 63 168 8.0 18.0 0.00 0.00 0.00 35 1017.1
20260503181043 62 217 9.0 19.0 0.00 0.00 0.00 34 1017.4
20260503174924 62 246 6.0 20.0 0.00 0.00 0.00 34 1017.8
20260503173946 62 227 8.0 20.0 0.00 0.00 0.00 34 1017.8
20260503172935 62 255 6.0 14.0 0.00 0.00 0.00 33 1017.8
20260503171947 61 237 8.0 16.0 0.00 0.00 0.00 33 1018.0
20260503170913 60 282 11.0 21.0 0.00 0.00 0.00 34 1018.1